Weather History for Linton Municipal Airport, ND

Change the Weather History Date:

Sunday, January 5, 2014

  Actual Average (KBIS) Record (KBIS)
Temperature  
Mean Temperature -12 °F 12 °F  
Max Temperature -9 °F 23 °F 59 °F (2012)
Min Temperature -16 °F 2 °F -35 °F (1884)
Degree Days  
Heating Degree Days 78 52  
Month to date heating degree days 260  
Since 1 July heating degree days 3760  
Cooling Degree Days 0 0  
Month to date cooling degree days 0  
Year to date cooling degree days 0  
Moisture  
Dew Point -22 °F    
Average Humidity 69    
Maximum Humidity 84    
Minimum Humidity 53    
Precipitation  
Precipitation 0.01 in 0.02 in 0.34 in (1888)
Month to date precipitation 0.08  
Year to date precipitation 0.08  
Snow  
Snow 0.00 in 0.30 in 5.00 in (1888)
Month to date snowfall 1.6  
Since 1 July snowfall 22.1  
Snow Depth -    
Sea Level Pressure  
Sea Level Pressure 30.41 in    
Wind  
Wind Speed 14 mph (NW)    
Max Wind Speed 36 mph    
Max Gust Speed 45 mph    
Visibility 9 miles    
Events Rain , Snow    
T = Trace of Precipitation, MM = Missing Value Source: NWS Daily Summary

Daily Weather History Graph

Daily Weather History Graph

Search for Another Location

Airport:

Trip Planner

Search our weather history database for the weather conditions in past years. The results will help you decide how hot, cold, wet, or windy it might be!

Date:

Astronomy

Jan. 05, 2014 Rise Set
Actual Time 8:23 AM CST 5:09 PM CST
Civil Twilight 7:49 AM CST 5:44 PM CST
Nautical Twilight 7:11 AM CST 6:21 PM CST
Astronomical Twilight 6:34 AM CST 6:58 PM CST
Moon 10:48 AM CST (1/5) 10:59 PM CST (1/5)
Length of Visible Light 9h 54m
Length of Day
8h 46m
Waxing Crescent, 25% of the Moon is Illuminated
Jan 5
Waxing Crescent
Jan 7
First Quarter
Jan 15
Full
Jan 23
Last Quarter
Jan 30
New

Hourly Weather History & Observations

Time (CST) Temp. Windchill Dew Point Humidity Pressure Visibility Wind Dir Wind Speed Gust Speed Precip Events Conditions
12:15 AM -9.4 °F -22.7 °F -16.6 °F 71% 30.28 in 10.0 mi WNW 5.8 mph - N/A   Clear
12:35 AM -11.2 °F -26.4 °F -16.6 °F 77% 30.28 in 10.0 mi WNW 6.9 mph - N/A   Clear
12:55 AM -11.2 °F -23.0 °F -16.6 °F 77% 30.28 in 10.0 mi West 4.6 mph - N/A   Clear
1:15 AM -11.2 °F -27.8 °F -16.6 °F 77% 30.28 in 10.0 mi West 8.1 mph - N/A   Clear
1:35 AM -9.4 °F -24.3 °F -16.6 °F 71% 30.28 in 10.0 mi West 6.9 mph - N/A   Clear
1:55 AM -13.0 °F -25.1 °F -18.4 °F 77% 30.29 in 10.0 mi WNW 4.6 mph - N/A   Clear
2:15 AM -16.6 °F -32.9 °F -22.0 °F 76% 30.29 in 10.0 mi West 6.9 mph - N/A   Clear
2:35 AM -16.6 °F -34.4 °F -22.0 °F 76% 30.30 in 10.0 mi West 8.1 mph - N/A   Clear
2:55 AM -11.2 °F -29.0 °F -16.6 °F 77% 30.31 in 10.0 mi WNW 9.2 mph - N/A   Partly Cloudy
3:15 AM -13.0 °F -31.3 °F -18.4 °F 77% 30.32 in 10.0 mi WNW 9.2 mph - N/A   Partly Cloudy
3:35 AM -13.0 °F -32.4 °F -18.4 °F 77% 30.32 in 10.0 mi NW 10.4 mph - N/A   Clear
3:55 AM -13.0 °F -30.0 °F -18.4 °F 77% 30.32 in 10.0 mi WNW 8.1 mph - N/A   Clear
4:15 AM -13.0 °F -30.0 °F -18.4 °F 77% 30.31 in 10.0 mi West 8.1 mph - N/A   Clear
4:35 AM -13.0 °F -30.0 °F -18.4 °F 77% 30.32 in 10.0 mi West 8.1 mph - N/A   Clear
4:55 AM -16.6 °F -35.7 °F -22.0 °F 76% 30.32 in 10.0 mi West 9.2 mph - N/A   Clear
5:15 AM -13.0 °F -31.3 °F -18.4 °F 77% 30.32 in 10.0 mi WNW 9.2 mph - N/A   Clear
5:35 AM -13.0 °F -31.3 °F -18.4 °F 77% 30.32 in 10.0 mi WNW 9.2 mph - N/A   Clear
5:55 AM -14.8 °F -30.8 °F -20.2 °F 77% 30.33 in 10.0 mi WNW 6.9 mph - N/A   Clear
6:15 AM -14.8 °F -29.1 °F -20.2 °F 77% 30.34 in 10.0 mi WNW 5.8 mph - N/A   Clear
6:35 AM -13.0 °F -33.4 °F -18.4 °F 77% 30.34 in 10.0 mi NW 11.5 mph - N/A   Clear
6:55 AM -11.2 °F -32.1 °F -16.6 °F 77% 30.35 in 10.0 mi WNW 12.7 mph - N/A   Clear
7:15 AM -11.2 °F -32.1 °F -16.6 °F 77% 30.35 in 10.0 mi NW 12.7 mph - N/A   Clear
7:35 AM -11.2 °F -30.1 °F -18.4 °F 70% 30.36 in 10.0 mi NW 10.4 mph - N/A   Mostly Cloudy
7:55 AM -13.0 °F -30.0 °F -18.4 °F 77% 30.37 in 10.0 mi WNW 8.1 mph - N/A   Partly Cloudy
8:15 AM -16.6 °F -31.3 °F -20.2 °F 84% 30.37 in 10.0 mi NW 5.8 mph - N/A   Clear
8:35 AM -16.6 °F -32.9 °F -20.2 °F 84% 30.38 in 10.0 mi NW 6.9 mph - N/A   Clear
8:55 AM -14.8 °F -33.5 °F -20.2 °F 77% 30.40 in 6.0 mi NW 9.2 mph - N/A Snow Light Snow
9:15 AM -11.2 °F -36.4 °F -18.4 °F 70% 30.42 in 10.0 mi NW 19.6 mph - N/A   Mostly Cloudy
9:35 AM -11.2 °F -36.4 °F -18.4 °F 70% 30.43 in 10.0 mi NW 19.6 mph 26.5 mph N/A   Scattered Clouds
9:55 AM -11.2 °F -37.6 °F -16.6 °F 77% 30.45 in 1.0 mi NNW 21.9 mph 27.6 mph N/A Snow Light Snow
10:15 AM -11.2 °F -36.4 °F -16.6 °F 77% 30.46 in 0.5 mi NNW 19.6 mph 28.8 mph 0.01 in Snow Snow
10:35 AM -11.2 °F -38.2 °F -20.2 °F 64% 30.47 in 1.8 mi NNW 23.0 mph 29.9 mph 0.01 in   Haze
10:55 AM -11.2 °F -39.7 °F -20.2 °F 64% 30.48 in 1.0 mi NW 26.5 mph 33.4 mph 0.01 in Snow Light Snow
11:15 AM -13.0 °F -43.5 °F -20.2 °F 70% 30.49 in 1.5 mi NW 29.9 mph 33.4 mph N/A Rain Light Freezing Rain
11:35 AM -13.0 °F -43.9 °F -23.8 °F 59% 30.49 in 5.0 mi NW 31.1 mph 36.8 mph N/A   Haze
11:55 AM -13.0 °F -43.9 °F -25.6 °F 53% 30.49 in 9.0 mi NW 31.1 mph 38.0 mph N/A   Partly Cloudy
12:15 PM -13.0 °F -43.0 °F -25.6 °F 53% 30.48 in 5.0 mi NW 28.8 mph 40.3 mph N/A   Haze
12:35 PM -13.0 °F -45.5 °F -23.8 °F 59% 30.48 in 5.0 mi NW 35.7 mph 43.7 mph N/A   Haze
12:55 PM -13.0 °F -43.9 °F -23.8 °F 59% 30.48 in 5.0 mi NW 31.1 mph 44.9 mph N/A   Haze
1:15 PM -13.0 °F -43.5 °F -23.8 °F 59% 30.47 in 10.0 mi NW 29.9 mph 39.1 mph N/A   Mostly Cloudy
1:35 PM -13.0 °F -45.5 °F -25.6 °F 53% 30.46 in 10.0 mi NW 35.7 mph 41.4 mph N/A   Mostly Cloudy
1:55 PM -13.0 °F -44.3 °F -25.6 °F 53% 30.47 in 7.0 mi NW 32.2 mph 43.7 mph N/A   Mostly Cloudy
2:15 PM -13.0 °F -43.0 °F -25.6 °F 53% 30.48 in 10.0 mi NW 28.8 mph 36.8 mph N/A   Scattered Clouds
2:35 PM -13.0 °F -43.0 °F -23.8 °F 59% 30.47 in 10.0 mi NW 28.8 mph 34.5 mph N/A   Partly Cloudy
2:55 PM -13.0 °F -43.5 °F -23.8 °F 59% 30.47 in 10.0 mi NW 29.9 mph 36.8 mph N/A   Mostly Cloudy
3:15 PM -13.0 °F -41.1 °F -23.8 °F 59% 30.48 in 10.0 mi NW 24.2 mph 40.3 mph N/A   Mostly Cloudy
3:35 PM -13.0 °F -43.5 °F -22.0 °F 64% 30.47 in 10.0 mi NW 29.9 mph 38.0 mph N/A   Mostly Cloudy
3:55 PM -13.0 °F -43.5 °F -23.8 °F 59% 30.48 in 9.0 mi NW 29.9 mph 39.1 mph N/A   Mostly Cloudy
4:15 PM -13.0 °F -42.1 °F -22.0 °F 64% 30.48 in 10.0 mi NW 26.5 mph - N/A   Overcast
4:35 PM -13.0 °F -42.1 °F -25.6 °F 53% 30.49 in 10.0 mi NW 26.5 mph 35.7 mph N/A   Mostly Cloudy
4:55 PM -14.8 °F -45.9 °F -23.8 °F 64% 30.49 in 10.0 mi NW 29.9 mph 34.5 mph N/A   Mostly Cloudy
5:15 PM -14.8 °F -45.9 °F -23.8 °F 64% 30.49 in 10.0 mi WNW 29.9 mph 34.5 mph N/A   Scattered Clouds
5:35 PM -16.6 °F -46.4 °F -25.6 °F 64% 30.49 in 10.0 mi NW 25.3 mph 31.1 mph N/A   Scattered Clouds
5:55 PM -16.6 °F -45.3 °F -25.6 °F 64% 30.49 in 10.0 mi WNW 23.0 mph 31.1 mph N/A   Scattered Clouds
6:15 PM -16.6 °F -44.1 °F -25.6 °F 64% 30.49 in 10.0 mi NW 20.7 mph 27.6 mph N/A   Scattered Clouds
6:35 PM -16.6 °F -42.1 °F -25.6 °F 64% 30.49 in 10.0 mi WNW 17.3 mph 25.3 mph N/A   Clear
6:55 PM -16.6 °F -43.5 °F -23.8 °F 70% 30.48 in 8.0 mi WNW 19.6 mph - N/A   Mostly Cloudy
7:15 PM -16.6 °F -45.9 °F -25.6 °F 64% 30.47 in 10.0 mi NW 24.2 mph 28.8 mph N/A   Partly Cloudy
7:35 PM -16.6 °F -46.9 °F -25.6 °F 64% 30.46 in 10.0 mi NW 26.5 mph 31.1 mph N/A   Partly Cloudy
7:55 PM -16.6 °F -45.3 °F -25.6 °F 64% 30.46 in 10.0 mi NW 23.0 mph - N/A   Clear
8:15 PM -16.6 °F -44.1 °F -25.6 °F 64% 30.46 in 10.0 mi NW 20.7 mph 27.6 mph N/A   Partly Cloudy
8:35 PM -16.6 °F -42.9 °F -23.8 °F 70% 30.46 in 9.0 mi NW 18.4 mph - N/A Rain Light Freezing Rain
8:55 PM -16.6 °F -42.9 °F -23.8 °F 70% 30.46 in 10.0 mi NW 18.4 mph 23.0 mph N/A   Scattered Clouds
9:15 PM -16.6 °F -44.1 °F -23.8 °F 70% 30.45 in 10.0 mi WNW 20.7 mph 25.3 mph N/A   Mostly Cloudy
9:35 PM -16.6 °F -41.4 °F -23.8 °F 70% 30.45 in 10.0 mi WNW 16.1 mph - N/A   Partly Cloudy
9:55 PM -16.6 °F -41.4 °F -23.8 °F 70% 30.44 in 10.0 mi WNW 16.1 mph - N/A   Clear
10:15 PM -16.6 °F -42.1 °F -23.8 °F 70% 30.43 in 10.0 mi NW 17.3 mph - N/A   Clear
10:35 PM -14.8 °F -41.8 °F -22.0 °F 70% 30.42 in 10.0 mi WNW 20.7 mph 26.5 mph N/A Snow Light Snow
10:55 PM -14.8 °F -43.5 °F -22.0 °F 70% 30.41 in 10.0 mi NW 24.2 mph - N/A   Overcast
11:15 PM -13.0 °F -40.0 °F -22.0 °F 64% 30.41 in 10.0 mi NW 21.9 mph 27.6 mph N/A   Mostly Cloudy
11:35 PM -13.0 °F -39.4 °F -22.0 °F 64% 30.42 in 10.0 mi NW 20.7 mph - N/A   Mostly Cloudy
11:55 PM -14.8 °F -42.9 °F -22.0 °F 70% 30.40 in 10.0 mi WNW 23.0 mph 27.6 mph N/A   Overcast